Regional Weather Roundup
Issued by NWS

Home | Current Version | Previous Version | Text Only | Print | Product List | Glossary Off
Versions: 1 2 3 4 5 6 7 8 9 10 11 12 13 14 15 16 17 18 19 20 21 22 23 24 25 26 27 28 29 30 31 32 33 34 35 36 37 38 39 40 41 42 43 44 45 46 47 48 49 50

000
ASUS43 KDTX 030001
RWRMI
MICHIGAN HOURLY REGIONAL WEATHER ROUNDUP
NATIONAL WEATHER SERVICE DETROIT/PONTIAC MI
800 PM EDT MON MAY 02 2016

NOTE: "FAIR" INDICATES FEW OR NO CLOUDS BELOW 12,000 FEET WITH NO
SIGNIFICANT WEATHER AND/OR OBSTRUCTION TO VISIBILITY.

MIZ047>049-052>055-059>063-066>070-074>076-081>083-030100-
SOUTHEAST LOWER MICHIGAN

CITY           SKY/WX    TMP DP  RH WIND       PRES   REMARKS
ADRIAN         CLOUDY    52  46  80 NE6       30.00R
6HR MIN TEMP:  50; 6HR MAX TEMP:  52;

ALMA           CLEAR     53  35  51 E8        30.01S
ANN ARBOR      CLOUDY    52  44  74 NW5       29.99R
BAD AXE        CLEAR     53  29  38 N3        30.00S
6HR MIN TEMP:  53; 6HR MAX TEMP:  56;

CARO           CLEAR     55  34  46 N3        29.99S
DETROIT CITY   CLOUDY    54  41  61 CALM      29.99R
6HR MIN TEMP:  50; 6HR MAX TEMP:  54;

DETROIT        MOCLDY    53  43  68 CALM      30.00R
6HR MIN TEMP:  51; 6HR MAX TEMP:  54;

FLINT          CLOUDY    55  42  61 W8        29.99S
6HR MIN TEMP:  54; 6HR MAX TEMP:  61;

GROSSE ILE     CLOUDY    54  45  71 CALM      29.99R
HILLSDALE      CLOUDY    50  44  81 CALM      30.00R
HOWELL         CLOUDY    53  43  68 NW3       30.00R

CITY           SKY/WX    TMP DP  RH WIND       PRES   REMARKS
JACKSON        CLOUDY    51  44  77 CALM      30.00R
6HR MIN TEMP:  50; 6HR MAX TEMP:  52;

LAMBERTVILLE   CLOUDY    52  46  77 CALM      30.00S
6HR MIN TEMP:  51; 6HR MAX TEMP:  54;

LANSING        CLOUDY    53  41  63 N3        30.01S
6HR MIN TEMP:  51; 6HR MAX TEMP:  55;

LAPEER         FAIR      55  34  46 NE5       29.99S
6HR MIN TEMP:  53; 6HR MAX TEMP:  57;

MASON          CLOUDY    51  44  77 CALM      30.00R
MONROE         CLOUDY    52  46  79 CALM      29.99S
6HR MIN TEMP:  51; 6HR MAX TEMP:  53;

MT. CLEMENS    CLOUDY    53  45  73 E5        29.98S
6HR MIN TEMP:  52; 6HR MAX TEMP:  55;

PONTIAC        MOCLDY    53  42  66 W6        29.98S
6HR MIN TEMP:  50; 6HR MAX TEMP:  54;

PORT HOPE        N/A     49  40  71 NW3       29.99F
6HR MIN TEMP:  46; 6HR MAX TEMP:  50;

TRI CITIES     CLEAR     58  32  37 NE7       30.01S
6HR MIN TEMP:  55; 6HR MAX TEMP:  60;

MIDLAND        FAIR      55  29  36 E6        30.00S
6HR MIN TEMP:  55; 6HR MAX TEMP:  58;

TROY           CLOUDY    55  43  62 CALM      30.01R
SAGINAW HB     CLEAR     55  34  44 N6        30.00R
$$
MIZ043>046-050>051-056>058-064>065-071>073-077>080-030100-
SOUTHWEST LOWER MICHIGAN

CITY           SKY/WX    TMP DP  RH WIND       PRES   REMARKS
BATTLE CREEK   CLOUDY    52  42  69 NE7       30.00S
6HR MIN TEMP:  50; 6HR MAX TEMP:  54;

BENTON HARBOR  CLOUDY    50  36  58 CALM      30.01S
6HR MIN TEMP:  49; 6HR MAX TEMP:  52;

BIG RAPIDS     CLOUDY    57  31  37 CALM      29.99S
6HR MIN TEMP:  57; 6HR MAX TEMP:  60;

COLDWATER      CLOUDY    50  47  88 NE3       30.00R
FREMONT        CLOUDY    57  35  44 CALM      29.99S
HOLLAND        PTCLDY    55  41  59 W5        30.01S
6HR MIN TEMP:  51; 6HR MAX TEMP:  58;

GRAND RAPIDS   MOCLDY    57  42  57 E6        30.01S
6HR MIN TEMP:  56; 6HR MAX TEMP:  59;

IONIA          CLOUDY    52  42  69 CALM      30.00S
6HR MIN TEMP:  52; 6HR MAX TEMP:  55;

KALAMAZOO      CLOUDY    53  42  66 CALM      30.00F
6HR MIN TEMP:  52; 6HR MAX TEMP:  55;

LUDINGTON      CLEAR     56  31  38 N9G17     30.00F
6HR MIN TEMP:  56; 6HR MAX TEMP:  61;

MARSHALL       CLOUDY    51  45  80 CALM      30.00R
6HR MIN TEMP:  48; 6HR MAX TEMP:  53;

MOUNT PLEASANT CLOUDY    57  30  35 E7        30.00R
6HR MIN TEMP:  57; 6HR MAX TEMP:  61;

MUSKEGON       MOCLDY    51  40  65 SW5       30.01R
6HR MIN TEMP:  51; 6HR MAX TEMP:  63;

SOUTH HAVEN    CLOUDY    50  38  64 CALM      30.01S
$$
MIZ016>042-030100-
NORTHERN LOWER MICHIGAN

CITY           SKY/WX    TMP DP  RH WIND       PRES   REMARKS
ALPENA         CLEAR     58  29  33 S3        29.99S
6HR MIN TEMP:  58; 6HR MAX TEMP:  64;

BEAVER ISLAND  MOCLDY    54  34  46 W7        30.01S
6HR MIN TEMP:  54; 6HR MAX TEMP:  63;

BELLAIRE       PTCLDY    59  28  31 NW5       30.00S
6HR MIN TEMP:  59; 6HR MAX TEMP:  64;

CADILLAC       CLOUDY    56  32  38 NE3       29.98S
CHARLEVOIX     CLEAR     53  35  51 W3        30.04S
FRANKFORT      CLEAR     56  34  43 N3        30.00F
GAYLORD        CLOUDY    58  28  32 CALM      29.98F
6HR MIN TEMP:  58; 6HR MAX TEMP:  62;

GRAYLING       CLOUDY    59  30  33 CALM      29.99F
HARBOR SPRINGS CLEAR     42  36  78 SW3       30.00S
HOUGHTON LAKE  CLOUDY    57  31  37 CALM      29.99S
6HR MIN TEMP:  57; 6HR MAX TEMP:  61;

MANISTEE       CLEAR     55  32  41 NW8       30.01S
OSCODA         CLEAR     54  29  38 S6        29.99F
6HR MIN TEMP:  54; 6HR MAX TEMP:  58;

PELLSTON       CLEAR     59  30  33 NW12      30.00S
6HR MIN TEMP:  59; 6HR MAX TEMP:  64;

ROGERS CITY    CLEAR     56  26  30 CALM      30.00S
TRAVERSE CITY  PTCLDY    52  35  52 NE7       29.99S
6HR MIN TEMP:  52; 6HR MAX TEMP:  61;

$$
MIZ007>008-015-030100-
EASTERN UPPER MICHIGAN

CITY           SKY/WX    TMP DP  RH WIND       PRES   REMARKS
KINROSS          N/A     54  34  47 N8        30.00R
6HR MIN TEMP:  54; 6HR MAX TEMP:  61;

MACKINAC ISLAN PTCLDY    53  33  47 W7        30.00S
6HR MIN TEMP:  51; 6HR MAX TEMP:  60;

NEWBERRY       CLEAR     54  32  43 NE6       30.00S
6HR MIN TEMP:  54; 6HR MAX TEMP:  62;

S. S. MARIE    CLEAR     51  32  48 W10       30.00S
6HR MIN TEMP:  51; 6HR MAX TEMP:  62;

MUNISING         N/A     47  36  65 N3        30.01F
6HR MIN TEMP:  45; 6HR MAX TEMP:  48;

$$
MIZ004>006-011>014-085-030100-
CENTRAL UPPER MICHIGAN

CITY           SKY/WX    TMP DP  RH WIND       PRES   REMARKS
MANISTIQUE     CLEAR     52  34  50 SW3       30.00S
6HR MIN TEMP:  49; 6HR MAX TEMP:  58;

ESCANABA       CLEAR     55  32  41 S6        30.01S
6HR MIN TEMP:  55; 6HR MAX TEMP:  63;

MENOMINEE      CLEAR     57  32  38 S8        30.00S
6HR MIN TEMP:  57; 6HR MAX TEMP:  63;

SAWYER-GWINN   CLEAR     54  32  43 NE9       29.99F
$$
MIZ001>003-009>011-084-030100-
WESTERN UPPER MICHIGAN

CITY           SKY/WX    TMP DP  RH WIND       PRES   REMARKS
IRON MOUNTAIN  CLOUDY    60  31  33 SE8       29.97S
6HR MIN TEMP:  60; 6HR MAX TEMP:  66;

HOUGHTON       CLEAR     57  33  40 CALM      29.99F
6HR MIN TEMP:  56; 6HR MAX TEMP:  60;

COPPER HARBOR    N/A     53  34  48 SW7       29.99F
6HR MIN TEMP:  44; 6HR MAX TEMP:  53;

IRONWOOD         N/A     57  27  30 W5        29.97F
6HR MIN TEMP:  57; 6HR MAX TEMP:  61;

$$

ABBREVIATIONS USED IN REMARKS
   TC - TEMPERATURE IN CELSIUS
  WCI - WIND CHILL INDEX
   HX - HEAT INDEX
  VSB - VISIBILITY




USA.gov is the U.S. government's official web portal to all federal, state and local government web resources and services.